Stations météo

Publicité
Calvi, France (7754): Température de l'air & dewpoint: 18.02.2019 00:00:00 - 24.02.2019 00:00:00 (CET)Calvi, France (7754): Température de l'air 5cm: 18.02.2019 00:00:00 - 24.02.2019 00:00:00 (CET)Calvi, France (7754): Vitesse du vent & gusts: 18.02.2019 00:00:00 - 24.02.2019 00:00:00 (CET)Calvi, France (7754): Direction du vent: 18.02.2019 00:00:00 - 24.02.2019 00:00:00 (CET)Calvi, France (7754): reduced air pressure: 18.02.2019 00:00:00 - 24.02.2019 00:00:00 (CET)Calvi, France (7754): visibility: 18.02.2019 00:00:00 - 24.02.2019 00:00:00 (CET)Calvi, France (7754): Quantités de précipitations: 18.02.2019 00:00:00 - 24.02.2019 00:00:00 (CET)
Date & Time tt [°C] td [°C] tt 5cm [°C] ff [km/h] ff [knt] fx [km/h] fx [knt] dd ppp [hPa] vv [km] rr [mm]
24.02.2019 00:00:00 13,6 -20,1 12,1 45 24 87 47 ENE 1026,8 60 0,0
23.02.2019 23:00:00 13,6 -20,1 12,0 40 22 86 47 ENE 1026,7 26 0,0
23.02.2019 22:00:00 13,4 -20,3 11,6 36 19 87 47 NE 1026,9 60 0,0
23.02.2019 21:00:00 13,1 -22,1 11,4 51 28 86 47 NE 1027,0 60 0,0
23.02.2019 20:00:00 12,8 -19,4 10,7 39 21 76 41 NE 1026,6 42 0,0
23.02.2019 19:00:00 12,5 -13,5 11,4 26 14 68 37 ENE 1026,7 60 0,0
23.02.2019 18:00:00 13,6 -9,0 12,4 34 18 68 37 ENE 1026,2 60 0,0
23.02.2019 17:00:00 14,5 -6,4 15,4 35 19 63 34 NE 1025,6 49 0,0
23.02.2019 16:00:00 15,6 -3,4 17,0 32 18 56 31 NNE 1025,3 20 0,0
23.02.2019 15:00:00 15,9 -2,1 17,5 35 19 61 33 NNE 1025,6 57 0,0
23.02.2019 14:00:00 16,7 -0,1 18,2 32 18 58 31 NE 1026,0 57 0,0
23.02.2019 13:00:00 18,5 -0,4 19,1 29 16 47 26 NE 1025,6 60 0,0
23.02.2019 12:00:00 18,7 1,2 20,4 21 12 31 17 NNE 1026,0 49 0,0
23.02.2019 11:00:00 15,3 9,4 19,2 8 4 16 8 N 1026,2 20 0,0
23.02.2019 10:00:00 13,9 9,3 10,6 3 2 9 5 SSE 1026,1 19 0,0
23.02.2019 09:00:00 10,2 7,1 4,7 10 5 14 8 SSE 1026,2 32 0,0
23.02.2019 08:00:00 5,0 3,3 3,4 14 7 18 10 S 1026,6 15 0,0
23.02.2019 07:00:00 4,5 2,4 3,1 16 9 19 10 S 1026,4 14 0,0
23.02.2019 06:00:00 5,2 2,4 3,6 6 3 19 10 S 1025,5 34 0,0
23.02.2019 05:00:00 4,9 2,6 3,4 12 7 17 9 S 1025,5 34 0,0
23.02.2019 04:00:00 6,0 2,5 2,9 17 9 21 11 S 1024,9 50 0,0
23.02.2019 03:00:00 4,9 1,6 3,2 3 2 18 10 SW 1025,9 26 0,0
23.02.2019 02:00:00 5,7 3,7 3,3 15 8 18 10 S 1025,8 34 0,0
23.02.2019 01:00:00 4,7 2,7 3,0 4 2 19 11 SSW 1026,3 12 0,2
23.02.2019 00:00:00 6,4 4,9 5,1 9 5 18 10 S 1025,7 15 0,0
22.02.2019 23:00:00 6,1 5,1 4,5 11 6 18 10 S 1026,1 5 0,0
22.02.2019 22:00:00 6,1 4,4 4,9 3 2 16 9 SE 1026,0 11 0,0
22.02.2019 21:00:00 6,9 5,5 5,3 10 5 16 8 S 1025,6 17 0,0
22.02.2019 20:00:00 6,8 5,1 5,6 6 4 13 7 SSW 1025,1 12 0,0
22.02.2019 19:00:00 8,6 6,7 7,7 10 5 14 8 SSW 1024,6 16 0,0
22.02.2019 18:00:00 11,0 7,7 9,1 2 1 12 6 E 1024,8 19 0,0
22.02.2019 17:00:00 13,4 8,7 15,7 9 5 20 11 N 1024,1 18 0,0
22.02.2019 16:00:00 14,2 8,8 17,2 14 8 25 14 N 1024,0 20 0,0
22.02.2019 15:00:00 15,0 8,0 18,1 15 8 23 12 N 1023,9 42 0,0
22.02.2019 14:00:00 15,2 7,7 16,6 11 6 22 12 N 1024,0 19 0,0
22.02.2019 13:00:00 15,1 7,6 17,1 11 6 22 12 NW 1024,6 20 0,0
22.02.2019 12:00:00 15,2 7,2 20,0 9 5 19 10 NNW 1025,2 50 0,0
22.02.2019 11:00:00 14,8 6,1 17,8 6 3 16 9 NNE 1025,7 38 0,0
22.02.2019 10:00:00 14,0 6,4 11,0 10 6 22 12 S 1026,1 60 0,0
22.02.2019 09:00:00 10,7 5,0 5,1 5 3 14 8 S 1026,2 52 0,0
22.02.2019 08:00:00 6,0 3,2 4,0 4 2 17 9 SW 1026,8 27 0,0
22.02.2019 07:00:00 5,9 2,4 4,2 6 4 25 13 S 1026,3 36 0,0
22.02.2019 06:00:00 7,5 4,3 3,8 15 8 22 12 S 1026,4 20 0,0
22.02.2019 05:00:00 5,1 2,6 3,0 9 5 18 10 S 1027,2 26 0,0
22.02.2019 04:00:00 5,8 2,8 3,0 4 2 19 10 S 1027,5 20 0,0
22.02.2019 03:00:00 4,9 2,6 2,5 2 1 15 8 SSW 1028,5 17 0,0
22.02.2019 02:00:00 5,5 3,0 4,6 9 5 17 9 S 1028,7 20 0,0
22.02.2019 01:00:00 6,6 3,9 4,4 16 9 20 11 S 1029,2 21 0,0
22.02.2019 00:00:00 5,7 3,9 4,0 5 3 11 6 S 1029,5 16 0,0
21.02.2019 23:00:00 6,0 4,3 4,4 5 3 9 5 SSW 1029,2 19 0,0
21.02.2019 22:00:00 6,5 4,5 4,6 2 1 17 9 SSW 1029,3 13 0,0
21.02.2019 21:00:00 7,6 5,6 6,3 11 6 16 9 S 1029,1 12 0,0
21.02.2019 20:00:00 8,3 5,9 6,8 7 4 9 5 S 1029,0 15 0,0
21.02.2019 19:00:00 10,1 6,6 8,8 5 3 10 5 S 1028,9 27 0,0
21.02.2019 18:00:00 11,4 6,3 10,4 5 3 16 8 SW 1028,6 35 0,0
21.02.2019 17:00:00 12,8 6,4 13,4 9 5 21 12 SW 1028,6 40 0,0
21.02.2019 16:00:00 14,3 6,1 15,8 13 7 26 14 SSW 1028,4 50 0,0
21.02.2019 15:00:00 14,3 6,1 16,1 9 5 21 11 WSW 1028,6 46 0,0
21.02.2019 14:00:00 14,3 6,9 16,0 13 7 25 14 SW 1028,7 44 0,0
21.02.2019 13:00:00 14,1 7,4 14,5 4 2 11 6 ESE 1028,8 48 0,0
21.02.2019 12:00:00 13,0 7,2 13,9 5 3 14 8 NNE 1029,4 34 0,0
21.02.2019 11:00:00 13,5 6,6 17,4 3 2 9 5 ENE 1029,5 20 0,0
21.02.2019 10:00:00 12,0 6,3 9,0 3 1 5 3 N 1029,5 31 0,0
21.02.2019 09:00:00 8,9 5,5 3,4 3 1 9 5 SSE 1029,4 20 0,0
21.02.2019 08:00:00 3,8 2,0 3,0 7 4 14 8 S 1028,8 19 0,0
21.02.2019 07:00:00 4,5 2,0 2,3 9 5 17 9 SSW 1028,1 16 0,0
21.02.2019 06:00:00 3,7 1,9 1,5 6 3 11 6 S 1028,4 16 0,0
21.02.2019 05:00:00 3,4 1,3 1,6 4 2 13 7 S 1027,8 17 0,0
21.02.2019 04:00:00 3,3 1,3 2,1 6 4 13 7 S 1027,6 14 0,0
21.02.2019 03:00:00 3,5 1,5 2,4 3 2 14 8 S 1027,6 14 0,0
21.02.2019 02:00:00 3,9 2,1 2,6 9 5 14 7 S 1027,6 16 0,0
21.02.2019 01:00:00 5,2 3,0 2,9 10 5 14 8 SSW 1027,4 14 0,0
21.02.2019 00:00:00 5,2 3,2 3,6 8 4 14 7 S 1027,5 15 0,0
20.02.2019 23:00:00 5,1 3,3 4,2 5 3 14 8 S 1027,0 16 0,0
20.02.2019 22:00:00 6,0 3,7 5,2 6 4 14 8 S 1026,9 17 0,0
20.02.2019 21:00:00 6,8 4,8 5,8 6 4 13 7 S 1026,6 14 0,0
20.02.2019 20:00:00 9,3 6,7 8,0 5 3 11 6 S 1025,9 19 0,0
20.02.2019 19:00:00 10,5 7,7 10,0 6 3 9 5 SSE 1025,6 21 0,0
20.02.2019 18:00:00 11,9 7,8 11,5 4 2 10 5 NNW 1025,2 41 0,0
20.02.2019 17:00:00 12,5 7,8 12,9 6 4 13 7 NNW 1024,9 27 0,0
20.02.2019 16:00:00 12,8 7,9 13,8 8 5 14 8 N 1024,9 48 0,0
20.02.2019 15:00:00 12,6 7,5 13,8 5 3 18 10 N 1024,9 50 0,0
20.02.2019 14:00:00 13,0 7,0 14,8 11 6 18 10 N 1025,0 57 0,0
20.02.2019 13:00:00 13,2 7,2 14,7 11 6 19 10 N 1025,0 47 0,0
20.02.2019 12:00:00 13,8 7,6 18,4 12 7 20 11 NNW 1025,2 57 0,0
20.02.2019 11:00:00 13,9 6,0 18,6 9 5 16 9 NNW 1025,1 56 0,0
20.02.2019 10:00:00 13,2 6,5 9,8 2 1 6 4 ENE 1024,8 49 0,0
20.02.2019 09:00:00 9,4 5,6 5,0 4 2 15 8 SSW 1024,7 43 0,0
20.02.2019 08:00:00 5,4 3,4 2,5 9 5 15 8 SSW 1024,2 29 0,0
20.02.2019 07:00:00 5,7 3,2 1,8 10 6 16 9 SSW 1023,5 23 0,0
20.02.2019 06:00:00 3,1 1,1 2,0 6 3 15 8 S 1023,6 22 0,0
20.02.2019 05:00:00 3,7 2,4 2,1 6 4 11 6 S 1023,6 16 0,0
20.02.2019 04:00:00 3,4 1,4 2,2 8 4 14 8 S 1023,4 17 0,0
20.02.2019 03:00:00 5,1 3,6 2,8 9 5 13 7 SSW 1023,7 20 0,0
20.02.2019 02:00:00 4,8 2,8 3,6 9 5 14 8 S 1023,6 31 0,0
20.02.2019 01:00:00 6,4 4,1 4,1 8 5 13 7 SSW 1023,5 32 0,0
20.02.2019 00:00:00 6,8 4,5 5,7 2 1 12 6 S 1023,3 36 0,0
19.02.2019 23:00:00 7,6 5,1 6,2 6 3 10 5 SSW 1023,3 34 0,0
19.02.2019 22:00:00 8,6 5,5 7,4 7 4 9 5 S 1023,3 37 0,0
19.02.2019 21:00:00 9,9 6,2 9,3 3 1 9 5 ESE 1023,1 44 0,0
19.02.2019 20:00:00 10,1 6,6 9,6 5 3 11 6 SSW 1023,1 35 0,0
19.02.2019 19:00:00 10,4 6,2 9,6 2 1 8 4 S 1022,9 17 0,0
19.02.2019 18:00:00 11,0 5,9 10,5 3 1 6 3 NE 1022,5 53 0,0
19.02.2019 17:00:00 11,5 6,0 11,7 5 3 7 4 NE 1022,5 55 0,0
19.02.2019 16:00:00 11,8 5,9 12,2 6 3 10 5 NNE 1022,9 60 0,0
19.02.2019 15:00:00 11,9 5,5 12,8 7 4 13 7 N 1023,0 60 0,0
19.02.2019 14:00:00 11,9 6,2 12,6 8 4 14 8 N 1023,4 60 0,0
19.02.2019 13:00:00 11,9 6,6 12,5 7 4 13 7 NNW 1023,6 57 0,0
19.02.2019 12:00:00 12,2 6,7 12,9 5 3 9 5 NNW 1024,1 56 0,0
19.02.2019 11:00:00 12,2 6,0 13,5 0 0 6 3 N 1023,9 60 0,0
19.02.2019 10:00:00 11,6 6,1 11,4 0 0 8 4 N 1023,7 19 0,0
19.02.2019 09:00:00 9,7 7,3 8,1 0 0 7 4 N 1023,5 43 0,0
19.02.2019 08:00:00 8,4 5,9 7,1 5 3 9 5 SW 1023,1 40 0,0
19.02.2019 07:00:00 7,4 5,4 6,4 6 3 14 8 S 1023,0 40 0,0
19.02.2019 06:00:00 6,9 4,9 5,4 9 5 18 10 SSW 1023,0 32 0,0
19.02.2019 05:00:00 6,2 3,9 5,6 7 4 16 9 SSW 1022,8 41 0,0
19.02.2019 04:00:00 7,2 5,2 6,3 13 7 16 8 SSW 1022,6 28 0,0
19.02.2019 03:00:00 8,2 5,8 7,7 9 5 12 7 SW 1023,2 29 0,0
19.02.2019 02:00:00 8,4 6,4 7,6 6 3 10 5 SSW 1023,6 28 0,0
19.02.2019 01:00:00 7,8 5,9 5,9 4 2 14 8 SW 1024,0 33 0,0
19.02.2019 00:00:00 6,1 4,6 3,6 9 5 13 7 S 1024,1 35 0,0
18.02.2019 23:00:00 4,9 3,2 4,1 7 4 16 9 S 1024,1 31 0,0
18.02.2019 22:00:00 5,3 3,9 4,1 6 3 16 8 S 1024,3 19 0,0
18.02.2019 21:00:00 5,8 4,0 4,9 6 3 14 8 SSW 1024,2 21 0,0
18.02.2019 20:00:00 7,1 5,2 5,9 9 5 14 8 SSW 1024,1 29 0,0
18.02.2019 19:00:00 7,5 5,6 7,0 13 7 15 8 S 1024,1 18 0,0
18.02.2019 18:00:00 9,2 6,1 7,9 7 4 9 5 SSW 1023,6 28 0,0
18.02.2019 17:00:00 12,7 8,4 15,3 5 3 16 9 NW 1023,5 53 0,0
18.02.2019 16:00:00 13,2 8,7 16,3 9 5 21 12 NNW 1023,8 43 0,0
18.02.2019 15:00:00 13,4 8,2 16,3 11 6 22 12 NNW 1024,2 20 0,0
18.02.2019 14:00:00 13,7 8,5 14,9 12 7 21 11 N 1024,7 60 0,0
18.02.2019 13:00:00 13,5 8,8 14,8 11 6 22 12 NNW 1025,3 20 0,0
18.02.2019 12:00:00 13,2 7,8 18,2 13 7 21 11 NNW 1026,0 50 0,0
18.02.2019 11:00:00 12,8 8,3 17,2 10 6 19 11 NNW 1026,2 36 0,0
18.02.2019 10:00:00 11,7 5,1 8,4 3 1 5 3 NNE 1026,3 11 0,0
18.02.2019 09:00:00 8,1 4,5 2,3 5 3 12 7 S 1026,5 53 0,0
18.02.2019 08:00:00 2,8 1,2 1,4 6 3 11 6 S 1026,6 34 0,0
18.02.2019 07:00:00 2,4 0,8 1,5 5 3 12 7 S 1026,3 43 0,0
18.02.2019 06:00:00 3,3 2,0 2,3 10 6 12 6 S 1026,3 60 0,0
18.02.2019 05:00:00 3,8 2,0 2,6 6 3 13 7 S 1026,5 60 0,0
18.02.2019 04:00:00 4,5 2,7 3,5 8 5 14 8 SSW 1026,8 54 0,0
18.02.2019 03:00:00 4,8 3,3 4,0 15 8 17 9 S 1027,5 22 0,0
18.02.2019 02:00:00 5,6 4,1 4,7 11 6 15 8 SSW 1027,6 34 0,0
18.02.2019 01:00:00 6,5 4,5 5,2 11 6 14 8 SSW 1028,1 45 0,0
18.02.2019 00:00:00 9,1 5,8 7,5 4 2 9 5 S 1028,3 50 0,0

tt = Température de l'air
td = dewpoint
tt 5cm = Température de l'air 5cm
ff = Vitesse du vent
fx = gusts
dd = Direction du vent
ppp = reduced air pressure
vv = visibility
rr = Quantités de précipitations

stations d'obs. à proximité